HIMAWARI-8

Last updated on Tue Oct 15 2024 00:02:17 GMT+0000 (Coordinated Universal Time)

1 40267U 14060A 24288.22109858 -.00000277 00000+0 00000+0 0 9994 2 40267 0.0323 142.0385 0000850 99.1642 2.3577 1.00271048 36631
UTC large
Height (km)
Speed (km/s)
/
Latitude / Longitude
Inclination (degrees)
Orbital Period (minutes)
Azimuth
Elevation
Range (km)
Doppler Factor

Next 0 passes for location: London (51.5072 / 0.1276)

Sorry there are no passes over London.